KA2QBS Weather Reports


Display with metric or nautical units.
time (UTC)temp
F
wind
direction
speed
MPH
gust
MPH
rain 1hr
in
rain 24hr
in
rain mn
in
humidity
%
barometer
mb
20260507174549 51 290 4.0 13.0 0.00 0.00 0.00 55 1012.5
20260507173044 50 294 3.0 13.0 0.00 0.00 0.00 56 1012.6
20260507171543 50 313 3.0 11.0 0.00 0.00 0.00 58 1012.7
20260507170043 50 335 1.0 11.0 0.00 0.00 0.00 61 1012.9
20260507164540 49 267 6.0 16.0 0.00 0.00 0.00 59 1013.0
20260507163039 49 281 4.0 11.0 0.00 0.00 0.00 65 1013.2
20260507161540 48 286 6.0 17.0 0.00 0.00 0.00 60 1013.5
20260507160039 48 326 4.0 15.0 0.00 0.00 0.00 63 1013.5
20260507154535 48 325 2.0 13.0 0.00 0.00 0.00 66 1013.6
20260507153035 47 309 5.0 12.0 0.00 0.00 0.00 63 1013.7
20260507151533 47 331 1.0 14.0 0.00 0.00 0.00 66 1013.8
20260507150032 47 315 8.0 17.0 0.00 0.00 0.00 63 1013.8
20260507144534 47 308 6.0 13.0 0.00 0.00 0.00 65 1013.9
20260507143032 46 336 2.0 15.0 0.00 0.00 0.00 68 1013.9
20260507141526 45 317 1.0 10.0 0.00 0.00 0.00 69 1014.0
20260507140028 45 308 3.0 13.0 0.00 0.00 0.00 72 1014.0
20260507134527 45 294 2.0 11.0 0.00 0.00 0.00 71 1014.0
20260507133022 44 306 5.0 10.0 0.00 0.00 0.00 72 1014.0
20260507131523 43 300 0.0 9.0 0.00 0.00 0.00 76 1014.0
20260507130016 42 313 1.0 6.0 0.00 0.00 0.00 79 1014.1
20260507124518 41 290 3.0 9.0 0.00 0.00 0.00 78 1014.0
20260507123021 41 324 0.0 4.0 0.00 0.00 0.00 83 1013.9
20260507121513 40 309 0.0 0.0 0.00 0.00 0.00 87 1013.9
20260507120011 39 308 0.0 1.0 0.00 0.00 0.00 89 1013.9
20260507114510 38 286 0.0 0.0 0.00 0.00 0.00 91 1013.9
20260507113009 37 286 0.0 0.0 0.00 0.00 0.00 92 1013.8
20260507111510 37 286 0.0 0.0 0.00 0.00 0.00 92 1013.7
20260507110011 37 286 0.0 0.0 0.00 0.00 0.00 92 1013.5
20260507104505 36 286 0.0 0.0 0.00 0.00 0.00 91 1013.5
20260507103007 36 286 0.0 0.0 0.00 0.00 0.00 93 1013.1
20260507101507 36 286 0.0 0.0 0.00 0.00 0.00 94 1013.2
20260507094603 36 286 0.0 0.0 0.00 0.00 0.00 94 1013.0
20260507093058 37 286 0.0 0.0 0.00 0.00 0.00 94 1013.0
20260507091603 37 286 0.0 5.0 0.00 0.00 0.00 94 1013.1
20260507090111 37 279 0.0 6.0 0.00 0.00 0.00 94 1013.1
20260507084553 38 295 0.0 6.0 0.00 0.00 0.00 94 1013.1
20260507083050 38 305 1.0 4.0 0.00 0.00 0.00 95 1012.9
20260507081555 39 302 0.0 4.0 0.00 0.00 0.00 95 1012.9
20260507080045 39 301 0.0 5.0 0.00 0.00 0.00 95 1012.8
20260507074544 40 305 0.0 4.0 0.00 0.00 0.00 95 1012.7
20260507073055 40 298 1.0 8.0 0.00 0.00 0.00 95 1012.8
20260507071542 40 269 0.0 5.0 0.00 0.00 0.00 96 1012.9
20260507070058 41 303 2.0 6.0 0.00 0.00 0.00 96 1012.8
20260507064539 41 295 2.0 6.0 0.00 0.00 0.00 96 1012.7
20260507063036 41 297 0.0 2.0 0.00 0.00 0.00 96 1012.5
20260507061536 41 298 2.0 9.0 0.00 0.00 0.00 96 1012.7
20260507060040 42 271 3.0 10.0 0.00 0.00 0.00 96 1012.6
20260507054531 42 291 0.0 5.0 0.00 0.00 0.00 96 1012.6
20260507053031 42 290 0.0 6.0 0.00 0.00 0.00 96 1012.6
20260507051528 42 284 0.0 3.0 0.00 0.00 0.00 96 1012.7
20260507050032 42 281 0.0 0.0 0.00 0.00 0.00 96 1012.7
20260507044540 43 282 0.0 5.0 0.00 0.00 0.00 96 1012.5
20260507043027 43 281 0.0 0.0 0.00 0.00 0.00 96 1012.4
20260507041524 43 281 0.0 5.0 0.00 0.00 0.00 96 1012.4
20260507040023 43 279 1.0 7.0 0.00 0.00 0.00 96 1012.6
20260507034521 43 329 0.0 3.0 0.00 0.00 0.00 96 1012.5
20260507033020 43 265 0.0 0.0 0.00 0.00 0.00 97 1012.6
20260507031519 43 265 0.0 0.0 0.00 0.00 0.00 97 1012.4
20260507030017 44 262 1.0 6.0 0.00 0.00 0.00 97 1012.4
20260507024516 44 276 1.0 7.0 0.00 0.00 0.00 97 1012.3
20260507023014 44 284 1.0 4.0 0.00 0.00 0.00 97 1012.4
20260507021512 44 284 2.0 7.0 0.00 0.00 0.00 97 1012.5
20260507020010 45 298 0.0 5.0 0.00 0.00 0.00 97 1012.8
20260507014506 45 303 1.0 5.0 0.00 0.00 0.00 97 1012.7
20260507013006 45 277 0.0 4.0 0.00 0.00 0.00 97 1012.5
20260507011505 45 281 1.0 9.0 0.00 0.00 0.00 98 1012.6
20260507010120 46 286 1.0 5.0 0.00 0.00 0.00 98 1012.4
20260507004558 46 282 0.0 4.0 0.00 0.00 0.00 98 1011.9
20260507003056 46 284 0.0 0.0 0.00 0.00 0.00 98 1011.6
20260507001604 46 284 0.0 0.0 0.00 0.00 0.00 97 1011.2
20260507000053 46 284 0.0 0.0 0.00 0.00 0.00 97 1011.1
20260506234555 46 284 0.0 0.0 0.00 0.00 0.00 97 1011.0
20260506233054 46 284 0.0 0.0 0.00 0.00 0.00 97 1010.9
20260506231550 46 284 0.0 0.0 0.00 0.00 0.00 97 1010.7
20260506230055 46 284 0.0 0.0 0.00 0.00 0.00 97 1010.6
20260506224550 46 283 0.0 2.0 0.00 0.00 0.00 97 1010.4
20260506223049 46 282 0.0 3.0 0.00 0.00 0.00 97 1010.2
20260506221549 47 315 0.0 2.0 0.00 0.00 0.00 98 1010.1
20260506220051 47 314 0.0 5.0 0.00 0.00 0.00 98 1010.0
20260506214548 47 318 1.0 5.0 0.00 0.00 0.00 98 1009.7
20260506213047 47 329 2.0 7.0 0.00 0.00 0.00 98 1009.4
20260506211546 48 281 0.0 6.0 0.00 0.00 0.00 98 1009.1
20260506210050 48 310 2.0 6.0 0.00 0.00 0.00 99 1008.9
20260506204545 47 325 2.0 10.0 0.00 0.00 0.00 99 1008.9
20260506203051 47 293 0.0 6.0 0.00 0.00 0.00 99 1008.7
20260506201604 47 284 1.0 5.0 0.00 0.00 0.00 99 1008.6
20260506200043 47 268 3.0 8.0 0.00 0.00 0.00 99 1008.6
20260506194550 47 279 0.0 7.0 0.00 0.00 0.00 99 1008.6
20260506193045 47 267 0.0 7.0 0.00 0.00 0.00 99 1008.5
20260506191543 47 284 0.0 9.0 0.00 0.00 0.00 99 1008.4
20260506190039 46 292 0.0 6.0 0.00 0.00 0.00 99 1008.3
20260506184548 46 288 1.0 6.0 0.00 0.00 0.00 98 1008.1
20260506183040 46 287 2.0 5.0 0.00 0.00 0.00 99 1007.9
20260506181537 47 286 0.0 0.0 0.00 0.00 0.00 99 1007.8
20260506180036 46 286 0.0 6.0 0.00 0.00 0.00 99 1007.8